Tracking 29892 objects as of 21-Nov-2024
HD Live streaming from Space Station
objects crossing your sky now

FENGYUN 1C DEB

Track FENGYUN 1C DEB now!
10-day predictions


NORAD ID: 30971
Int'l Code: 1999-025BBM
Perigee: 554.9 km
Apogee: 802.7 km
Inclination: 99.2 °
Period: 98.2 minutes
Semi major axis: 7049 km
RCS: 0.0018 m2 (small)
Launch date: May 10, 1999
Source: People's Republic of China (PRC)
Launch site: Taiyaun Space Center, China (TSC)

Note: This is SATELLITE DEBRIS
Your satellite tracking list
Your tracking list is empty




NASA's NSSDC Master Catalog

Two Line Element Set (TLE):
1 30971U 99025BBM 24325.92581594  .00010892  00000-0  15614-2 0  9993
2 30971  99.2270 313.6988 0175721 301.0766  79.8469 14.66687779940361
Source of the keplerian elements: AFSPC